Location: Spangle
(47.4302°N, 117.3779°W)
Time: 14:16:42
(UTC+00:00)

Envisat - Pass Details

Date: 23 April 2026
Orbit: 761 x 762 km, 98.4° (Epoch: 15 May)

Event Time Altitude Azimuth Distance (km) Brightness Sun altitude
Rises 11:13:30 0° 8° (N) 3,236 7.0 -14.5°
Reaches altitude 10° 11:15:54 10° 3° (N) 2,305 6.0 -14.2°
Maximum altitude 11:20:42 45° 292° (WNW) 1,040 3.5 -13.6°
Enters shadow 11:24:02 19° 228° (SW) 1,764 4.2 -13.1°
